Location: Unspecified
(0.0000°N, 0.0000°E)
Time: 13:12:11
(UTC+00:00)

Hubble Space Telescope - Pass Details

Date: 21 September 2017
Orbit: 538 x 541 km, 28.5° (Epoch: 24 September)

Event Time Altitude Azimuth Distance (km) Brightness Sun altitude
Exits shadow 04:08:01 10° 169° (S) 1,774 3.5 -26.3°
Maximum altitude 04:09:06 11° 153° (SSE) 1,717 3.6 -26.0°
Drops below altitude 10° 04:10:22 10° 135° (SE) 1,790 4.0 -25.7°
Sets 04:14:13 0° 100° (E) 2,679 5.7 -24.7°
